Location: Étouvelles
(49.5207°N, 3.5808°E)
Time: 00:43:46
(UTC+00:00)

Cosmos 540 Rocket - Pass Details

Date: 29 September 2023
Orbit: 737 x 752 km, 74.1° (Epoch: 03 December)

Event Time Altitude Azimuth Distance (km) Brightness Sun altitude
Rises 19:54:23 0° 342° (NNW) 3,185 7.3 -23.7°
Reaches altitude 10° 19:57:07 10° 355° (N) 2,259 6.3 -24.1°
Enters shadow 20:00:41 25° 38° (NE) 1,456 4.8 -24.6°
